Time,TemperatureF,DewpointF,PressureIn,WindDirection,WindDirectionDegrees,WindSpeedMPH,WindSpeedGustMPH,Humidity,HourlyPrecipIn,Conditions,Clouds,dailyrainin,SolarRadiationWatts/m^2,SoftwareType,DateUTC
2013-06-09 00:03:00,62.8,56.5,29.88,WNW,292,0.0,0.0,80,0.00,CLR,,0.00,0.0,WeatherDisplay:10.37,2013-06-08 22:03:00,
2013-06-09 00:08:00,62.8,56.5,29.88,WNW,292,0.0,0.0,80,0.00,CLR,,0.00,0.0,WeatherDisplay:10.37,2013-06-08 22:08:00,
2013-06-09 00:13:00,62.6,56.3,29.88,WNW,292,2.3,2.3,80,0.00,CLR,,0.00,0.0,WeatherDisplay:10.37,2013-06-08 22:13:00,
2013-06-09 00:18:00,62.6,56.3,29.88,WNW,292,0.0,0.0,80,0.00,CLR,,0.00,0.0,WeatherDisplay:10.37,2013-06-08 22:18:00,
2013-06-09 00:23:00,62.4,56.5,29.88,WNW,292,0.0,0.0,81,0.00,CLR,,0.00,0.0,WeatherDisplay:10.37,2013-06-08 22:23:00,
2013-06-09 00:28:00,62.2,56.3,29.88,WNW,292,0.0,0.0,81,0.00,CLR,,0.00,0.0,WeatherDisplay:10.37,2013-06-08 22:28:00,
2013-06-09 00:33:00,62.2,56.3,29.88,WNW,292,0.0,0.0,81,0.00,CLR,,0.00,0.0,WeatherDisplay:10.37,2013-06-08 22:33:00,
2013-06-09 00:38:00,62.1,56.5,29.88,West,270,0.0,0.0,82,0.00,CLR,,0.00,0.0,WeatherDisplay:10.37,2013-06-08 22:38:00,
2013-06-09 00:43:00,61.9,56.3,29.88,WNW,292,1.2,0.0,82,0.00,CLR,,0.00,0.0,WeatherDisplay:10.37,2013-06-08 22:43:00,
2013-06-09 00:48:00,61.7,56.1,29.88,WNW,292,0.0,0.0,82,0.00,CLR,,0.00,0.0,WeatherDisplay:10.37,2013-06-08 22:48:00,
2013-06-09 00:53:00,61.7,56.1,29.88,WNW,292,0.0,0.0,82,0.00,CLR,,0.00,0.0,WeatherDisplay:10.37,2013-06-08 22:53:00,
2013-06-09 00:58:00,61.3,56.1,29.88,WNW,292,0.0,0.0,83,0.00,CLR,,0.00,0.0,WeatherDisplay:10.37,2013-06-08 22:58:00,
2013-06-09 01:03:00,61.2,56.0,29.88,WNW,292,0.0,0.0,83,0.00,CLR,,0.00,0.0,WeatherDisplay:10.37,2013-06-08 23:03:00,
2013-06-09 01:08:00,61.0,55.8,29.88,WNW,292,0.0,0.0,83,0.00,CLR,,0.00,0.0,WeatherDisplay:10.37,2013-06-08 23:08:00,
2013-06-09 01:13:00,60.6,55.8,29.88,WNW,292,0.0,0.0,84,0.00,CLR,,0.00,0.0,WeatherDisplay:10.37,2013-06-08 23:13:00,
2013-06-09 01:18:00,60.4,55.6,29.88,WNW,292,0.0,0.0,84,0.00,CLR,,0.00,0.0,WeatherDisplay:10.37,2013-06-08 23:18:00,
2013-06-09 01:23:00,60.3,56.1,29.88,WNW,292,0.0,0.0,86,0.00,CLR,,0.00,0.0,WeatherDisplay:10.37,2013-06-08 23:23:00,
2013-06-09 01:28:00,60.1,55.9,29.88,WNW,292,0.0,0.0,86,0.00,CLR,,0.00,0.0,WeatherDisplay:10.37,2013-06-08 23:28:00,
2013-06-09 01:33:00,59.9,56.0,29.85,WNW,292,0.0,0.0,87,0.00,CLR,,0.00,0.0,WeatherDisplay:10.37,2013-06-08 23:33:00,
2013-06-09 01:38:00,59.7,55.8,29.85,NW,315,0.0,0.0,87,0.00,CLR,,0.00,0.0,WeatherDisplay:10.37,2013-06-08 23:38:00,
2013-06-09 01:43:00,59.7,56.2,29.85,NW,315,0.0,0.0,88,0.00,CLR,,0.00,0.0,WeatherDisplay:10.37,2013-06-08 23:43:00,
2013-06-09 01:48:00,59.5,55.7,29.85,NW,315,0.0,0.0,87,0.00,CLR,,0.00,0.0,WeatherDisplay:10.37,2013-06-08 23:48:00,
2013-06-09 01:53:00,59.4,55.8,29.85,NW,315,0.0,0.0,88,0.00,CLR,,0.00,0.0,WeatherDisplay:10.37,2013-06-08 23:53:00,
2013-06-09 01:58:00,59.4,55.8,29.85,NW,315,0.0,0.0,88,0.00,CLR,,0.00,0.0,WeatherDisplay:10.37,2013-06-08 23:58:00,
2013-06-09 02:03:00,59.2,55.6,29.85,NW,315,0.0,0.0,88,0.00,CLR,,0.00,0.0,WeatherDisplay:10.37,2013-06-09 00:03:00,
2013-06-09 02:08:00,59.0,55.4,29.85,NW,315,0.0,0.0,88,0.00,CLR,,0.00,0.0,WeatherDisplay:10.37,2013-06-09 00:08:00,
2013-06-09 02:13:00,58.8,55.3,29.85,NW,315,0.0,0.0,88,0.00,CLR,,0.00,0.0,WeatherDisplay:10.37,2013-06-09 00:13:00,
2013-06-09 02:18:00,58.6,55.4,29.85,NW,315,0.0,0.0,89,0.00,CLR,,0.00,0.0,WeatherDisplay:10.37,2013-06-09 00:18:00,
2013-06-09 02:23:00,58.6,55.4,29.85,NNE,22,0.0,0.0,89,0.00,CLR,,0.00,0.0,WeatherDisplay:10.37,2013-06-09 00:23:00,
2013-06-09 02:28:00,58.5,55.2,29.85,NNE,22,0.0,0.0,89,0.00,CLR,,0.00,0.0,WeatherDisplay:10.37,2013-06-09 00:28:00,
2013-06-09 02:33:00,58.5,55.2,29.83,NNE,22,0.0,0.0,89,0.00,CLR,,0.00,0.0,WeatherDisplay:10.37,2013-06-09 00:33:00,
2013-06-09 02:38:00,58.3,55.4,29.83,NNE,22,0.0,0.0,90,0.00,CLR,,0.00,0.0,WeatherDisplay:10.37,2013-06-09 00:38:00,
2013-06-09 02:43:00,58.1,55.2,29.83,NNE,22,0.0,0.0,90,0.00,CLR,,0.00,0.0,WeatherDisplay:10.37,2013-06-09 00:43:00,
2013-06-09 02:48:00,58.1,55.2,29.83,NNE,22,0.0,0.0,90,0.00,CLR,,0.00,0.0,WeatherDisplay:10.37,2013-06-09 00:48:00,
2013-06-09 02:53:00,57.9,55.0,29.83,NNE,22,0.0,0.0,90,0.00,CLR,,0.00,0.0,WeatherDisplay:10.37,2013-06-09 00:53:00,
2013-06-09 02:58:00,57.9,55.0,29.83,NNE,22,0.0,0.0,90,0.00,CLR,,0.00,0.0,WeatherDisplay:10.37,2013-06-09 00:58:00,
2013-06-09 03:03:00,57.7,54.8,29.83,NNE,22,0.0,0.0,90,0.00,CLR,,0.00,0.0,WeatherDisplay:10.37,2013-06-09 01:03:00,
2013-06-09 03:08:00,57.6,54.6,29.83,NNE,22,0.0,0.0,90,0.00,CLR,,0.00,0.0,WeatherDisplay:10.37,2013-06-09 01:08:00,
2013-06-09 03:13:00,57.6,55.0,29.83,NNE,22,0.0,0.0,91,0.00,CLR,,0.00,0.0,WeatherDisplay:10.37,2013-06-09 01:13:00,
2013-06-09 03:18:00,57.4,54.8,29.85,NNE,22,0.0,0.0,91,0.00,CLR,,0.00,0.0,WeatherDisplay:10.37,2013-06-09 01:18:00,
2013-06-09 03:23:00,57.4,54.8,29.85,NNE,22,0.0,0.0,91,0.00,CLR,,0.00,0.0,WeatherDisplay:10.37,2013-06-09 01:23:00,
2013-06-09 03:28:00,57.2,54.6,29.85,NNE,22,0.0,0.0,91,0.00,CLR,,0.00,0.0,WeatherDisplay:10.37,2013-06-09 01:28:00,
2013-06-09 03:33:00,57.2,54.6,29.83,NNE,22,0.0,0.0,91,0.00,CLR,,0.00,0.0,WeatherDisplay:10.37,2013-06-09 01:33:00,
2013-06-09 03:38:00,57.2,54.6,29.83,NNE,22,0.0,0.0,91,0.00,CLR,,0.00,0.0,WeatherDisplay:10.37,2013-06-09 01:38:00,
2013-06-09 03:43:00,57.0,54.7,29.83,NNE,22,0.0,0.0,92,0.00,CLR,,0.00,0.0,WeatherDisplay:10.37,2013-06-09 01:43:00,
2013-06-09 03:48:00,57.0,54.7,29.85,NNE,22,0.0,0.0,92,0.00,CLR,,0.00,0.0,WeatherDisplay:10.37,2013-06-09 01:48:00,
2013-06-09 03:53:00,56.8,54.5,29.85,NNE,22,0.0,0.0,92,0.00,CLR,,0.00,0.0,WeatherDisplay:10.37,2013-06-09 01:53:00,
2013-06-09 03:58:00,56.8,54.5,29.85,NNE,22,0.0,0.0,92,0.00,CLR,,0.00,0.0,WeatherDisplay:10.37,2013-06-09 01:58:00,
2013-06-09 04:03:00,56.8,54.5,29.85,NNE,22,0.0,0.0,92,0.00,CLR,,0.00,0.0,WeatherDisplay:10.37,2013-06-09 02:03:00,
2013-06-09 04:08:00,56.7,54.4,29.85,NNE,22,0.0,0.0,92,0.00,CLR,,0.00,0.0,WeatherDisplay:10.37,2013-06-09 02:08:00,
2013-06-09 04:13:00,56.7,54.4,29.85,NNE,22,0.0,0.0,92,0.00,CLR,,0.00,0.0,WeatherDisplay:10.37,2013-06-09 02:13:00,
2013-06-09 04:19:00,56.5,54.2,29.85,NNE,22,0.0,0.0,92,0.00,OVC,,0.00,0.0,WeatherDisplay:10.37,2013-06-09 02:19:00,
2013-06-09 04:24:00,56.5,54.2,29.85,NNE,22,0.0,0.0,92,0.00,OVC,,0.00,0.0,WeatherDisplay:10.37,2013-06-09 02:24:00,
2013-06-09 04:29:00,56.3,54.3,29.85,NNE,22,0.0,0.0,93,0.00,OVC,,0.00,0.0,WeatherDisplay:10.37,2013-06-09 02:29:00,
2013-06-09 04:34:00,56.3,54.3,29.85,NNE,22,0.0,0.0,93,0.00,OVC,,0.00,0.0,WeatherDisplay:10.37,2013-06-09 02:34:00,
2013-06-09 04:39:00,56.3,54.3,29.85,NNE,22,0.0,0.0,93,0.00,OVC,,0.00,0.0,WeatherDisplay:10.37,2013-06-09 02:39:00,
2013-06-09 04:44:00,56.3,54.3,29.85,NNE,22,0.0,0.0,93,0.00,OVC,,0.00,0.0,WeatherDisplay:10.37,2013-06-09 02:44:00,
2013-06-09 04:49:00,56.1,54.1,29.83,NNE,22,0.0,0.0,93,0.00,OVC,,0.00,0.0,WeatherDisplay:10.37,2013-06-09 02:49:00,
2013-06-09 04:54:00,56.1,54.1,29.83,NNE,22,0.0,0.0,93,0.00,OVC,,0.00,0.0,WeatherDisplay:10.37,2013-06-09 02:54:00,
2013-06-09 04:59:00,56.1,54.1,29.83,NNE,22,0.0,0.0,93,0.00,OVC,,0.00,1.2,WeatherDisplay:10.37,2013-06-09 02:59:00,
2013-06-09 05:04:00,56.1,54.1,29.83,NW,315,0.0,0.0,93,0.00,OVC,,0.00,3.3,WeatherDisplay:10.37,2013-06-09 03:04:00,
2013-06-09 05:09:00,56.1,54.4,29.83,WNW,292,2.3,0.0,94,0.00,OVC,,0.00,5.3,WeatherDisplay:10.37,2013-06-09 03:09:00,
2013-06-09 05:14:00,56.1,54.4,29.83,WNW,292,2.3,2.3,94,0.00,OVC,,0.00,7.4,WeatherDisplay:10.37,2013-06-09 03:14:00,
2013-06-09 05:19:00,56.3,54.6,29.85,WNW,292,0.0,0.0,94,0.00,OVC,,0.00,9.7,WeatherDisplay:10.37,2013-06-09 03:19:00,
2013-06-09 05:24:00,56.3,54.6,29.85,NNW,338,0.0,0.0,94,0.00,OVC,,0.00,11.9,WeatherDisplay:10.37,2013-06-09 03:24:00,
2013-06-09 05:29:00,56.3,54.6,29.85,NNW,338,0.0,0.0,94,0.00,OVC,,0.00,14.2,WeatherDisplay:10.37,2013-06-09 03:29:00,
2013-06-09 05:34:00,56.5,55.1,29.85,NNW,338,0.0,0.0,95,0.00,OVC,,0.00,16.5,WeatherDisplay:10.37,2013-06-09 03:34:00,
2013-06-09 05:39:00,56.8,55.4,29.85,NNW,338,0.0,0.0,95,0.00,OVC,,0.00,18.8,WeatherDisplay:10.37,2013-06-09 03:39:00,
2013-06-09 05:44:00,56.8,55.4,29.85,NNW,338,0.0,0.0,95,0.00,OVC,,0.00,21.1,WeatherDisplay:10.37,2013-06-09 03:44:00,
2013-06-09 05:49:00,57.2,55.8,29.85,NNW,338,0.0,0.0,95,0.00,OVC,,0.00,23.6,WeatherDisplay:10.37,2013-06-09 03:49:00,
2013-06-09 05:54:00,57.2,55.8,29.85,NNW,338,0.0,0.0,95,0.00,OVC,,0.00,25.9,WeatherDisplay:10.37,2013-06-09 03:54:00,
2013-06-09 05:59:00,57.4,56.2,29.85,NNW,338,0.0,0.0,96,0.00,OVC,,0.00,28.4,WeatherDisplay:10.37,2013-06-09 03:59:00,
2013-06-09 06:01:00,57.4,56.2,29.85,NNW,338,0.0,0.0,96,0.00,OVC,,0.00,28.9,WeatherDisplay:10.37,2013-06-09 04:01:00,
2013-06-09 06:02:00,57.6,56.4,29.85,NNW,338,0.0,0.0,96,0.00,OVC,,0.00,29.9,WeatherDisplay:10.37,2013-06-09 04:02:00,
2013-06-09 06:07:00,57.6,56.4,29.85,NNW,338,0.0,0.0,96,0.00,OVC,,0.00,32.3,WeatherDisplay:10.37,2013-06-09 04:07:00,
2013-06-09 06:12:00,57.9,56.8,29.85,NNE,22,0.0,0.0,96,0.00,OVC,,0.00,34.8,WeatherDisplay:10.37,2013-06-09 04:12:00,
2013-06-09 06:17:00,58.1,57.0,29.85,NNE,22,0.0,0.0,96,0.00,OVC,,0.00,37.5,WeatherDisplay:10.37,2013-06-09 04:17:00,
2013-06-09 06:22:00,58.3,57.4,29.85,NNE,22,0.0,0.0,97,0.00,OVC,,0.00,39.9,WeatherDisplay:10.37,2013-06-09 04:22:00,
2013-06-09 06:27:00,58.6,57.8,29.85,NNW,338,0.0,0.0,97,0.00,OVC,,0.00,42.6,WeatherDisplay:10.37,2013-06-09 04:27:00,
2013-06-09 06:32:00,58.8,58.0,29.85,NNW,338,0.0,0.0,97,0.00,OVC,,0.00,45.2,WeatherDisplay:10.37,2013-06-09 04:32:00,
2013-06-09 06:37:00,59.2,58.3,29.85,East,90,0.0,0.0,97,0.00,OVC,,0.00,47.9,WeatherDisplay:10.37,2013-06-09 04:37:00,
2013-06-09 06:42:00,59.5,58.7,29.85,ENE,68,0.0,0.0,97,0.00,OVC,,0.00,50.5,WeatherDisplay:10.37,2013-06-09 04:42:00,
2013-06-09 06:47:00,59.7,58.9,29.85,NNE,22,0.0,0.0,97,0.00,OVC,,0.00,53.1,WeatherDisplay:10.37,2013-06-09 04:47:00,
2013-06-09 06:52:00,60.3,59.4,29.85,NNE,22,0.0,0.0,97,0.00,OVC,,0.00,55.9,WeatherDisplay:10.37,2013-06-09 04:52:00,
2013-06-09 06:57:00,60.6,59.8,29.85,NNE,22,0.0,0.0,97,0.00,OVC,,0.00,58.6,WeatherDisplay:10.37,2013-06-09 04:57:00,
2013-06-09 07:02:00,60.8,59.9,29.85,ESE,112,0.0,0.0,97,0.00,OVC,,0.00,61.4,WeatherDisplay:10.37,2013-06-09 05:02:00,
2013-06-09 07:07:00,61.2,60.3,29.85,SSE,158,0.0,0.0,97,0.00,OVC,,0.00,64.0,WeatherDisplay:10.37,2013-06-09 05:07:00,
2013-06-09 07:12:00,61.7,60.8,29.85,ESE,112,0.0,0.0,97,0.00,OVC,,0.00,66.8,WeatherDisplay:10.37,2013-06-09 05:12:00,
2013-06-09 07:17:00,62.1,61.2,29.85,ESE,112,0.0,0.0,97,0.00,OVC,,0.00,69.6,WeatherDisplay:10.37,2013-06-09 05:17:00,
2013-06-09 07:22:00,62.8,61.3,29.85,SE,135,0.0,0.0,95,0.00,OVC,,0.00,72.4,WeatherDisplay:10.37,2013-06-09 05:22:00,
2013-06-09 07:27:00,63.3,61.6,29.85,SSW,202,0.0,0.0,94,0.00,OVC,,0.00,75.1,WeatherDisplay:10.37,2013-06-09 05:27:00,
2013-06-09 07:32:00,63.7,61.6,29.85,SSW,202,0.0,0.0,93,0.00,OVC,,0.00,77.9,WeatherDisplay:10.37,2013-06-09 05:32:00,
2013-06-09 07:37:00,64.4,61.7,29.85,WSW,248,0.0,0.0,91,0.00,OVC,,0.00,80.7,WeatherDisplay:10.37,2013-06-09 05:37:00,
2013-06-09 07:42:00,64.9,61.6,29.85,WSW,248,1.2,1.2,89,0.00,OVC,,0.00,83.5,WeatherDisplay:10.37,2013-06-09 05:42:00,
2013-06-09 07:47:00,65.5,61.2,29.85,WNW,292,0.0,0.0,86,0.00,OVC,,0.00,86.3,WeatherDisplay:10.37,2013-06-09 05:47:00,
2013-06-09 07:52:00,66.0,61.4,29.85,NW,315,0.0,0.0,85,0.00,OVC,,0.00,89.1,WeatherDisplay:10.37,2013-06-09 05:52:00,
2013-06-09 07:57:00,66.7,61.1,29.85,WSW,248,0.0,0.0,82,0.00,OVC,,0.00,91.9,WeatherDisplay:10.37,2013-06-09 05:57:00,
2013-06-09 08:02:00,66.9,61.2,29.85,WSW,248,1.2,1.2,82,0.00,OVC,,0.00,94.7,WeatherDisplay:10.37,2013-06-09 06:02:00,
2013-06-09 08:07:00,67.3,61.6,29.85,West,270,2.2,0.0,82,0.00,OVC,,0.00,97.5,WeatherDisplay:10.37,2013-06-09 06:07:00,
2013-06-09 08:12:00,67.8,61.8,29.85,NNE,22,1.2,0.0,81,0.00,OVC,,0.00,100.3,WeatherDisplay:10.37,2013-06-09 06:12:00,
2013-06-09 08:17:00,68.0,61.6,29.85,WNW,292,2.3,2.3,80,0.00,OVC,,0.00,103.1,WeatherDisplay:10.37,2013-06-09 06:17:00,
2013-06-09 08:22:00,68.5,62.1,29.85,WNW,292,2.4,2.4,80,0.00,OVC,,0.00,105.9,WeatherDisplay:10.37,2013-06-09 06:22:00,
2013-06-09 08:27:00,68.9,62.5,29.85,WNW,292,2.3,0.0,80,0.00,OVC,,0.00,108.7,WeatherDisplay:10.37,2013-06-09 06:27:00,
2013-06-09 08:32:00,69.3,62.8,29.85,WNW,292,1.2,0.0,80,0.00,OVC,,0.00,111.4,WeatherDisplay:10.37,2013-06-09 06:32:00,
2013-06-09 08:37:00,69.6,63.2,29.85,WSW,248,0.0,0.0,80,0.00,OVC,,0.00,114.2,WeatherDisplay:10.37,2013-06-09 06:37:00,
2013-06-09 08:42:00,70.0,62.8,29.85,SSW,202,1.2,0.0,78,0.00,OVC,,0.00,117.0,WeatherDisplay:10.37,2013-06-09 06:42:00,
2013-06-09 08:47:00,70.2,63.0,29.85,SSE,158,2.3,2.3,78,0.00,OVC,,0.00,119.6,WeatherDisplay:10.37,2013-06-09 06:47:00,
2013-06-09 08:52:00,70.5,63.0,29.85,SSW,202,2.4,2.4,77,0.00,OVC,,0.00,122.3,WeatherDisplay:10.37,2013-06-09 06:52:00,
2013-06-09 08:57:00,70.7,63.5,29.85,West,270,1.2,0.0,78,0.00,OVC,,0.00,124.9,WeatherDisplay:10.37,2013-06-09 06:57:00,
2013-06-09 09:02:00,70.9,63.3,29.85,East,90,2.3,2.3,77,0.00,OVC,,0.00,127.7,WeatherDisplay:10.37,2013-06-09 07:02:00,
2013-06-09 09:07:00,71.1,63.5,29.85,ESE,112,3.5,3.5,77,0.00,OVC,,0.00,130.2,WeatherDisplay:10.37,2013-06-09 07:07:00,
2013-06-09 09:12:00,71.4,63.1,29.85,SSW,202,5.8,5.8,75,0.00,OVC,,0.00,132.8,WeatherDisplay:10.37,2013-06-09 07:12:00,
2013-06-09 09:17:00,71.6,63.3,29.85,NNW,338,1.2,0.0,75,0.00,OVC,,0.00,135.5,WeatherDisplay:10.37,2013-06-09 07:17:00,
2013-06-09 09:22:00,71.8,63.0,29.85,SSE,158,2.3,2.3,74,0.00,OVC,,0.00,137.9,WeatherDisplay:10.37,2013-06-09 07:22:00,
2013-06-09 09:27:00,72.0,62.4,29.85,SSW,202,3.3,3.3,72,0.00,OVC,,0.00,140.4,WeatherDisplay:10.37,2013-06-09 07:27:00,
2013-06-09 09:32:00,72.1,63.4,29.85,ESE,112,2.3,2.3,74,0.00,OVC,,0.00,142.9,WeatherDisplay:10.37,2013-06-09 07:32:00,
2013-06-09 09:37:00,72.1,62.2,29.85,WNW,292,3.6,3.6,71,0.00,OVC,,0.00,145.4,WeatherDisplay:10.37,2013-06-09 07:37:00,
2013-06-09 09:42:00,72.3,62.0,29.85,SSW,202,4.6,4.6,70,0.00,OVC,,0.00,147.8,WeatherDisplay:10.37,2013-06-09 07:42:00,
2013-06-09 09:47:00,72.5,62.2,29.85,WSW,248,2.3,2.3,70,0.00,OVC,,0.00,150.2,WeatherDisplay:10.37,2013-06-09 07:47:00,
2013-06-09 09:52:00,72.7,61.5,29.85,SSW,202,2.6,2.6,68,0.00,OVC,,0.00,152.5,WeatherDisplay:10.37,2013-06-09 07:52:00,
2013-06-09 09:57:00,72.9,61.7,29.85,SSE,158,2.3,2.3,68,0.00,OVC,,0.00,154.8,WeatherDisplay:10.37,2013-06-09 07:57:00,
2013-06-09 10:02:00,73.0,62.3,29.85,WSW,248,4.6,4.6,69,0.00,OVC,,0.00,157.1,WeatherDisplay:10.37,2013-06-09 08:02:00,
2013-06-09 10:07:00,73.2,62.4,29.85,WSW,248,4.3,4.3,69,0.00,OVC,,0.00,159.2,WeatherDisplay:10.37,2013-06-09 08:07:00,
2013-06-09 10:12:00,73.4,61.8,29.85,WSW,248,3.3,3.3,67,0.00,OVC,,0.00,161.4,WeatherDisplay:10.37,2013-06-09 08:12:00,
2013-06-09 10:17:00,73.6,62.8,29.85,South,180,2.3,2.3,69,0.00,OVC,,0.00,163.5,WeatherDisplay:10.37,2013-06-09 08:17:00,
2013-06-09 10:22:00,73.9,63.1,29.85,SSW,202,4.6,4.6,69,0.00,OVC,,0.00,165.7,WeatherDisplay:10.37,2013-06-09 08:22:00,
2013-06-09 10:27:00,74.1,62.0,29.85,WSW,248,2.3,2.3,66,0.00,OVC,,0.00,167.6,WeatherDisplay:10.37,2013-06-09 08:27:00,
2013-06-09 10:32:00,74.1,61.2,29.85,WSW,248,5.8,5.8,64,0.00,OVC,,0.00,169.6,WeatherDisplay:10.37,2013-06-09 08:32:00,
2013-06-09 10:37:00,74.5,62.8,29.85,SE,135,3.5,3.5,67,0.00,OVC,,0.00,171.6,WeatherDisplay:10.37,2013-06-09 08:37:00,
2013-06-09 10:42:00,74.7,63.4,29.85,South,180,3.5,3.5,68,0.00,OVC,,0.00,173.4,WeatherDisplay:10.37,2013-06-09 08:42:00,
2013-06-09 10:47:00,75.0,62.5,29.85,SSE,158,2.3,2.3,65,0.00,OVC,,0.00,175.2,WeatherDisplay:10.37,2013-06-09 08:47:00,
2013-06-09 10:52:00,75.2,62.6,29.85,WSW,248,4.7,4.7,65,0.00,OVC,,0.00,176.9,WeatherDisplay:10.37,2013-06-09 08:52:00,
2013-06-09 10:57:00,75.4,62.4,29.85,NW,315,5.8,5.8,64,0.00,OVC,,0.00,178.7,WeatherDisplay:10.37,2013-06-09 08:57:00,
2013-06-09 11:02:00,75.7,62.2,29.85,WSW,248,3.5,3.5,63,0.00,OVC,,0.00,180.3,WeatherDisplay:10.37,2013-06-09 09:02:00,
2013-06-09 11:07:00,76.1,63.0,29.85,SSE,158,5.8,5.8,64,0.00,OVC,,0.00,181.8,WeatherDisplay:10.37,2013-06-09 09:07:00,
2013-06-09 11:12:00,76.3,62.3,29.85,SSW,202,3.5,3.5,62,0.00,OVC,,0.00,183.3,WeatherDisplay:10.37,2013-06-09 09:12:00,
2013-06-09 11:17:00,75.7,60.4,29.85,SSW,202,5.8,5.8,59,0.00,OVC,,0.00,184.8,WeatherDisplay:10.37,2013-06-09 09:17:00,
2013-06-09 11:22:00,75.7,60.9,29.85,West,270,5.8,5.8,60,0.00,OVC,,0.00,186.3,WeatherDisplay:10.37,2013-06-09 09:22:00,
2013-06-09 11:27:00,76.1,61.7,29.85,SSW,202,4.6,4.6,61,0.00,OVC,,0.00,187.6,WeatherDisplay:10.37,2013-06-09 09:27:00,
2013-06-09 11:32:00,76.1,61.2,29.85,SSW,202,5.8,5.8,60,0.00,OVC,,0.00,188.8,WeatherDisplay:10.37,2013-06-09 09:32:00,
2013-06-09 11:37:00,76.3,62.3,29.85,SSW,202,2.6,2.6,62,0.00,OVC,,0.00,190.1,WeatherDisplay:10.37,2013-06-09 09:37:00,
2013-06-09 11:42:00,76.5,60.1,29.85,SSW,202,8.1,8.1,57,0.00,OVC,,0.00,191.1,WeatherDisplay:10.37,2013-06-09 09:42:00,
2013-06-09 11:47:00,76.5,60.1,29.85,SSW,202,5.8,5.8,57,0.00,OVC,,0.00,192.2,WeatherDisplay:10.37,2013-06-09 09:47:00,
2013-06-09 11:52:00,76.8,61.9,29.85,ENE,68,4.6,4.6,60,0.00,OVC,,0.00,193.2,WeatherDisplay:10.37,2013-06-09 09:52:00,
2013-06-09 11:57:00,77.0,62.0,29.85,SSE,158,2.3,2.3,60,0.00,OVC,,0.00,194.0,WeatherDisplay:10.37,2013-06-09 09:57:00,
2013-06-09 12:02:00,77.2,62.2,29.83,SSW,202,2.3,2.3,60,0.00,OVC,,0.00,195.0,WeatherDisplay:10.37,2013-06-09 10:02:00,
2013-06-09 12:08:00,77.4,61.9,29.83,WSW,248,4.6,4.6,59,0.00,OVC,,0.00,195.9,WeatherDisplay:10.37,2013-06-09 10:08:00,
2013-06-09 12:13:00,77.2,61.3,29.83,SE,135,3.5,3.5,58,0.00,OVC,,0.00,196.5,WeatherDisplay:10.37,2013-06-09 10:13:00,
2013-06-09 12:18:00,77.4,61.9,29.83,SSW,202,4.6,4.6,59,0.00,OVC,,0.00,197.2,WeatherDisplay:10.37,2013-06-09 10:18:00,
2013-06-09 12:23:00,77.4,61.9,29.83,SSW,202,6.2,6.2,59,0.00,OVC,,0.00,197.8,WeatherDisplay:10.37,2013-06-09 10:23:00,
2013-06-09 12:28:00,77.5,59.1,29.83,WSW,248,6.2,6.2,53,0.00,OVC,,0.00,198.2,WeatherDisplay:10.37,2013-06-09 10:28:00,
2013-06-09 12:33:00,77.7,61.8,29.83,East,90,4.6,4.6,58,0.00,OVC,,0.00,198.7,WeatherDisplay:10.37,2013-06-09 10:33:00,
2013-06-09 12:38:00,77.9,61.9,29.88,ESE,112,6.9,6.9,58,0.00,OVC,,0.00,199.0,WeatherDisplay:10.37,2013-06-09 10:38:00,
2013-06-09 12:43:00,77.9,61.9,29.88,SSW,202,2.4,2.4,58,0.00,OVC,,0.00,199.3,WeatherDisplay:10.37,2013-06-09 10:43:00,
2013-06-09 12:48:00,77.9,61.4,29.85,SSE,158,4.6,4.6,57,0.00,OVC,,0.00,199.5,WeatherDisplay:10.37,2013-06-09 10:48:00,
2013-06-09 12:53:00,78.1,61.6,29.85,NE,45,2.3,2.4,57,0.00,OVC,,0.00,199.7,WeatherDisplay:10.37,2013-06-09 10:53:00,
2013-06-09 12:58:00,78.1,61.6,29.85,SSW,202,3.5,3.5,57,0.00,OVC,,0.00,199.7,WeatherDisplay:10.37,2013-06-09 10:58:00,
2013-06-09 13:03:00,78.3,60.8,29.85,NE,45,4.6,4.6,55,0.00,OVC,,0.00,199.7,WeatherDisplay:10.37,2013-06-09 11:03:00,
2013-06-09 13:08:00,78.4,61.4,29.85,South,180,4.6,4.6,56,0.00,OVC,,0.00,199.7,WeatherDisplay:10.37,2013-06-09 11:08:00,
2013-06-09 13:13:00,78.6,61.1,29.85,WSW,248,4.6,4.6,55,0.00,OVC,,0.00,199.3,WeatherDisplay:10.37,2013-06-09 11:13:00,
2013-06-09 13:18:00,78.8,58.0,29.83,SSW,202,6.9,6.9,49,0.00,OVC,,0.00,199.2,WeatherDisplay:10.37,2013-06-09 11:18:00,
2013-06-09 13:23:00,79.0,58.8,29.83,WSW,248,5.8,5.8,50,0.00,OVC,,0.00,198.8,WeatherDisplay:10.37,2013-06-09 11:23:00,
2013-06-09 13:28:00,78.8,60.2,29.83,SSW,202,4.6,4.6,53,0.00,OVC,,0.00,198.5,WeatherDisplay:10.37,2013-06-09 11:28:00,
2013-06-09 13:33:00,79.0,60.4,29.83,WSW,248,4.6,4.6,53,0.00,OVC,,0.00,198.0,WeatherDisplay:10.37,2013-06-09 11:33:00,
2013-06-09 13:38:00,79.5,60.4,29.83,SSW,202,3.5,0.0,52,0.00,OVC,,0.00,197.5,WeatherDisplay:10.37,2013-06-09 11:38:00,
2013-06-09 13:43:00,79.7,58.8,29.83,SSW,202,5.8,5.8,49,0.00,OVC,,0.00,196.8,WeatherDisplay:10.37,2013-06-09 11:43:00,
2013-06-09 13:48:00,80.1,59.7,29.83,WSW,248,4.6,4.6,50,0.00,OVC,,0.00,196.2,WeatherDisplay:10.37,2013-06-09 11:48:00,
2013-06-09 13:53:00,80.8,61.0,29.83,WSW,248,3.5,3.5,51,0.00,OVC,,0.00,195.7,WeatherDisplay:10.37,2013-06-09 11:53:00,
2013-06-09 13:58:00,81.0,60.6,29.83,SSW,202,3.5,3.5,50,0.00,OVC,,0.00,194.9,WeatherDisplay:10.37,2013-06-09 11:58:00,
2013-06-09 14:03:00,81.1,57.8,29.80,SSE,158,5.8,5.8,45,0.00,OVC,,0.00,193.7,WeatherDisplay:10.37,2013-06-09 12:03:00,
2013-06-09 14:08:00,81.5,60.5,29.80,SSW,202,4.6,4.6,49,0.00,OVC,,0.00,193.1,WeatherDisplay:10.37,2013-06-09 12:08:00,
2013-06-09 14:13:00,81.3,60.9,29.80,SSW,202,2.4,3.1,50,0.00,OVC,,0.00,191.7,WeatherDisplay:10.37,2013-06-09 12:13:00,
2013-06-09 14:18:00,81.7,61.8,29.80,South,180,3.5,3.8,51,0.00,OVC,,0.00,190.7,WeatherDisplay:10.37,2013-06-09 12:18:00,
2013-06-09 14:23:00,81.3,60.9,29.80,SSE,158,6.9,6.9,50,0.00,OVC,,0.00,189.8,WeatherDisplay:10.37,2013-06-09 12:23:00,
2013-06-09 14:28:00,81.3,60.3,29.80,SSW,202,3.8,3.8,49,0.00,OVC,,0.00,188.6,WeatherDisplay:10.37,2013-06-09 12:28:00,
2013-06-09 14:33:00,81.3,57.3,29.80,WSW,248,6.9,6.9,44,0.00,OVC,,0.00,187.1,WeatherDisplay:10.37,2013-06-09 12:33:00,
2013-06-09 14:38:00,82.0,59.2,29.80,WSW,248,4.6,4.6,46,0.00,OVC,,0.00,186.0,WeatherDisplay:10.37,2013-06-09 12:38:00,
2013-06-09 14:43:00,82.4,59.5,29.80,WSW,248,8.1,8.1,46,0.00,OVC,,0.00,184.3,WeatherDisplay:10.37,2013-06-09 12:43:00,
2013-06-09 14:48:00,82.6,59.7,29.80,SW,225,9.2,9.2,46,0.00,OVC,,0.00,182.8,WeatherDisplay:10.37,2013-06-09 12:48:00,
2013-06-09 14:53:00,83.1,61.4,29.80,ESE,112,3.5,3.5,48,0.00,OVC,,0.00,181.3,WeatherDisplay:10.37,2013-06-09 12:53:00,
2013-06-09 14:58:00,82.9,59.4,29.80,WNW,292,4.6,4.6,45,0.00,OVC,,0.00,179.7,WeatherDisplay:10.37,2013-06-09 12:58:00,
2013-06-09 15:03:00,83.1,61.4,29.80,SSE,158,4.0,4.0,48,0.00,OVC,,0.00,178.0,WeatherDisplay:10.37,2013-06-09 13:03:00,
2013-06-09 15:08:00,83.5,61.7,29.80,SSW,202,3.6,3.8,48,0.00,OVC,,0.00,176.7,WeatherDisplay:10.37,2013-06-09 13:08:00,
2013-06-09 15:13:00,83.8,61.5,29.80,SSW,202,5.8,5.8,47,0.00,OVC,,0.00,174.6,WeatherDisplay:10.37,2013-06-09 13:13:00,
2013-06-09 15:18:00,84.2,61.2,29.77,SSW,202,4.6,4.6,46,0.00,OVC,,0.00,172.8,WeatherDisplay:10.37,2013-06-09 13:18:00,
2013-06-09 15:23:00,83.3,60.4,29.77,WSW,248,5.8,5.8,46,0.00,OVC,,0.00,171.3,WeatherDisplay:10.37,2013-06-09 13:23:00,
2013-06-09 15:28:00,83.1,60.2,29.77,SSW,202,4.6,4.6,46,0.00,OVC,,0.00,168.8,WeatherDisplay:10.37,2013-06-09 13:28:00,
2013-06-09 15:33:00,82.4,58.9,29.77,SSW,202,9.2,9.2,45,0.00,OVC,,0.00,167.3,WeatherDisplay:10.37,2013-06-09 13:33:00,
2013-06-09 15:38:00,82.6,60.3,29.77,ESE,112,2.3,0.0,47,0.00,OVC,,0.00,164.8,WeatherDisplay:10.37,2013-06-09 13:38:00,
2013-06-09 15:43:00,82.8,60.5,29.77,WSW,248,2.4,2.6,47,0.00,OVC,,0.00,163.2,WeatherDisplay:10.37,2013-06-09 13:43:00,
2013-06-09 15:48:00,82.9,59.4,29.83,SSW,202,5.8,5.8,45,0.00,OVC,,0.00,161.0,WeatherDisplay:10.37,2013-06-09 13:48:00,
2013-06-09 15:53:00,82.9,58.8,29.83,SSW,202,3.5,3.5,44,0.00,OVC,,0.00,158.4,WeatherDisplay:10.37,2013-06-09 13:53:00,
2013-06-09 15:58:00,82.8,58.0,29.83,SSW,202,8.1,8.1,43,0.00,OVC,,0.00,156.3,WeatherDisplay:10.37,2013-06-09 13:58:00,
2013-06-09 16:03:00,82.8,59.3,29.80,SSW,202,8.1,8.1,45,0.00,OVC,,0.00,153.9,WeatherDisplay:10.37,2013-06-09 14:03:00,
2013-06-09 16:08:00,82.8,59.9,29.80,SW,225,4.6,4.6,46,0.00,OVC,,0.00,151.6,WeatherDisplay:10.37,2013-06-09 14:08:00,
2013-06-09 16:13:00,82.0,59.2,29.80,WNW,292,9.2,9.2,46,0.00,OVC,,0.00,149.8,WeatherDisplay:10.37,2013-06-09 14:13:00,
2013-06-09 16:18:00,82.0,57.3,29.80,WSW,248,5.8,5.8,43,0.00,OVC,,0.00,146.8,WeatherDisplay:10.37,2013-06-09 14:18:00,
2013-06-09 16:23:00,82.0,57.3,29.80,WSW,248,9.2,9.2,43,0.00,OVC,,0.00,145.0,WeatherDisplay:10.37,2013-06-09 14:23:00,
2013-06-09 16:28:00,82.6,59.7,29.80,ESE,112,4.6,4.6,46,0.00,OVC,,0.00,142.6,WeatherDisplay:10.37,2013-06-09 14:28:00,
2013-06-09 16:33:00,83.1,59.6,29.80,SW,225,4.6,4.6,45,0.00,OVC,,0.00,139.6,WeatherDisplay:10.37,2013-06-09 14:33:00,
2013-06-09 16:38:00,83.8,60.8,29.80,WNW,292,4.6,4.6,46,0.00,OVC,,0.00,137.4,WeatherDisplay:10.37,2013-06-09 14:38:00,
2013-06-09 16:43:00,84.0,60.4,29.80,WSW,248,5.8,5.8,45,0.00,OVC,,0.00,135.0,WeatherDisplay:10.37,2013-06-09 14:43:00,
2013-06-09 16:48:00,83.3,57.8,29.77,WSW,248,5.8,5.8,42,0.00,OVC,,0.00,132.3,WeatherDisplay:10.37,2013-06-09 14:48:00,
2013-06-09 16:53:00,83.1,58.3,29.77,West,270,3.5,3.5,43,0.00,OVC,,0.00,129.2,WeatherDisplay:10.37,2013-06-09 14:53:00,
2013-06-09 16:58:00,83.5,59.9,29.77,WSW,248,2.3,2.3,45,0.00,OVC,,0.00,127.2,WeatherDisplay:10.37,2013-06-09 14:58:00,
2013-06-09 17:03:00,84.0,60.4,29.77,ESE,112,3.5,3.5,45,0.00,OVC,,0.00,123.9,WeatherDisplay:10.37,2013-06-09 15:03:00,
2013-06-09 17:08:00,83.7,59.4,29.77,SSE,158,3.5,3.5,44,0.00,OVC,,0.00,121.3,WeatherDisplay:10.37,2013-06-09 15:08:00,
2013-06-09 17:13:00,83.8,60.2,29.77,WSW,248,3.5,3.5,45,0.00,OVC,,0.00,119.1,WeatherDisplay:10.37,2013-06-09 15:13:00,
2013-06-09 17:18:00,83.8,60.8,29.77,WSW,248,4.6,4.6,46,0.00,OVC,,0.00,115.8,WeatherDisplay:10.37,2013-06-09 15:18:00,
2013-06-09 17:23:00,83.5,59.9,29.77,SSW,202,2.3,2.3,45,0.00,OVC,,0.00,113.2,WeatherDisplay:10.37,2013-06-09 15:23:00,
2013-06-09 17:28:00,82.9,56.1,29.77,WSW,248,6.9,6.9,40,0.00,OVC,,0.00,111.0,WeatherDisplay:10.37,2013-06-09 15:28:00,
2013-06-09 17:33:00,82.8,59.3,29.77,SSW,202,3.1,3.1,45,0.00,OVC,,0.00,108.2,WeatherDisplay:10.37,2013-06-09 15:33:00,
2013-06-09 17:38:00,82.8,59.9,29.77,WNW,292,2.3,0.0,46,0.00,OVC,,0.00,104.9,WeatherDisplay:10.37,2013-06-09 15:38:00,
2013-06-09 17:43:00,82.8,59.3,29.77,SW,225,2.3,2.3,45,0.00,OVC,,0.00,102.6,WeatherDisplay:10.37,2013-06-09 15:43:00,
2013-06-09 17:48:00,82.6,59.7,29.77,SSW,202,1.4,1.4,46,0.00,OVC,,0.00,99.8,WeatherDisplay:10.37,2013-06-09 15:48:00,
2013-06-09 17:53:00,82.0,59.2,29.77,SSW,202,2.3,2.3,46,0.00,OVC,,0.00,96.5,WeatherDisplay:10.37,2013-06-09 15:53:00,
2013-06-09 17:58:00,81.5,58.7,29.77,WSW,248,3.6,3.6,46,0.00,OVC,,0.00,93.7,WeatherDisplay:10.37,2013-06-09 15:58:00,
2013-06-09 18:03:00,80.8,58.1,29.77,SSE,158,4.6,4.6,46,0.00,OVC,,0.00,91.4,WeatherDisplay:10.37,2013-06-09 16:03:00,
2013-06-09 18:08:00,80.1,58.0,29.77,SSW,202,4.6,4.6,47,0.00,OVC,,0.00,88.6,WeatherDisplay:10.37,2013-06-09 16:08:00,
2013-06-09 18:13:00,79.5,57.5,29.77,SSE,158,3.5,3.5,47,0.00,OVC,,0.00,85.3,WeatherDisplay:10.37,2013-06-09 16:13:00,
2013-06-09 18:18:00,78.8,56.9,29.77,SSW,202,6.9,6.9,47,0.00,OVC,,0.00,82.5,WeatherDisplay:10.37,2013-06-09 16:18:00,
2013-06-09 18:23:00,78.3,57.0,29.77,NNE,22,4.6,4.6,48,0.00,OVC,,0.00,80.4,WeatherDisplay:10.37,2013-06-09 16:23:00,
2013-06-09 18:28:00,77.9,56.0,29.77,SSW,202,3.5,3.5,47,0.00,OVC,,0.00,76.9,WeatherDisplay:10.37,2013-06-09 16:28:00,
2013-06-09 18:33:00,77.5,55.7,29.77,SSW,202,5.8,5.8,47,0.00,OVC,,0.00,74.7,WeatherDisplay:10.37,2013-06-09 16:33:00,
2013-06-09 18:38:00,77.2,55.4,29.77,SSW,202,3.3,3.3,47,0.00,OVC,,0.00,71.9,WeatherDisplay:10.37,2013-06-09 16:38:00,
2013-06-09 18:43:00,76.8,55.1,29.77,SSW,202,4.6,4.6,47,0.00,OVC,,0.00,68.6,WeatherDisplay:10.37,2013-06-09 16:43:00,
2013-06-09 18:48:00,76.6,54.9,29.77,West,270,5.8,5.8,47,0.00,OVC,,0.00,65.8,WeatherDisplay:10.37,2013-06-09 16:48:00,
2013-06-09 18:53:00,76.5,54.7,29.77,SSW,202,4.6,4.6,47,0.00,OVC,,0.00,63.0,WeatherDisplay:10.37,2013-06-09 16:53:00,
2013-06-09 18:58:00,76.1,54.4,29.77,SSE,158,3.5,3.5,47,0.00,OVC,,0.00,60.9,WeatherDisplay:10.37,2013-06-09 16:58:00,
2013-06-09 19:03:00,75.9,54.2,29.74,WSW,248,6.9,6.9,47,0.00,OVC,,0.00,57.6,WeatherDisplay:10.37,2013-06-09 17:03:00,
2013-06-09 19:08:00,75.7,55.2,29.74,SSW,202,5.8,5.8,49,0.00,OVC,,0.00,54.9,WeatherDisplay:10.37,2013-06-09 17:08:00,
2013-06-09 19:13:00,75.7,55.2,29.74,West,270,4.6,4.6,49,0.00,OVC,,0.00,52.3,WeatherDisplay:10.37,2013-06-09 17:13:00,
2013-06-09 19:18:00,75.6,55.6,29.77,SSW,202,3.5,3.5,50,0.00,OVC,,0.00,49.5,WeatherDisplay:10.37,2013-06-09 17:18:00,
2013-06-09 19:23:00,75.4,55.4,29.77,SSW,202,5.8,5.8,50,0.00,OVC,,0.00,46.9,WeatherDisplay:10.37,2013-06-09 17:23:00,
2013-06-09 19:28:00,75.2,54.7,29.77,SSW,202,6.9,6.9,49,0.00,OVC,,0.00,44.2,WeatherDisplay:10.37,2013-06-09 17:28:00,
2013-06-09 19:33:00,75.2,55.3,29.74,SW,225,4.6,4.6,50,0.00,OVC,,0.00,41.7,WeatherDisplay:10.37,2013-06-09 17:33:00,
2013-06-09 19:38:00,74.8,54.9,29.74,SSW,202,6.9,6.9,50,0.00,OVC,,0.00,39.1,WeatherDisplay:10.37,2013-06-09 17:38:00,
2013-06-09 19:43:00,74.7,54.8,29.74,SSW,202,3.5,3.5,50,0.00,OVC,,0.00,36.5,WeatherDisplay:10.37,2013-06-09 17:43:00,
2013-06-09 19:48:00,74.5,55.2,29.74,WSW,248,2.3,2.3,51,0.00,OVC,,0.00,34.0,WeatherDisplay:10.37,2013-06-09 17:48:00,
2013-06-09 19:53:00,74.1,54.8,29.74,SSW,202,5.8,5.8,51,0.00,OVC,,0.00,32.0,WeatherDisplay:10.37,2013-06-09 17:53:00,
2013-06-09 19:58:00,73.9,54.7,29.74,SSW,202,2.3,2.4,51,0.00,OVC,,0.00,29.0,WeatherDisplay:10.37,2013-06-09 17:58:00,
2013-06-09 20:03:00,73.6,54.9,29.74,SSW,202,2.9,2.9,52,0.00,OVC,,0.00,26.6,WeatherDisplay:10.37,2013-06-09 18:03:00,
2013-06-09 20:08:00,73.4,54.7,29.74,WSW,248,2.3,2.3,52,0.00,OVC,,0.00,24.6,WeatherDisplay:10.37,2013-06-09 18:08:00,
2013-06-09 20:13:00,73.0,54.9,29.74,SSE,158,4.3,4.3,53,0.00,OVC,,0.00,21.8,WeatherDisplay:10.37,2013-06-09 18:13:00,
2013-06-09 20:18:00,72.7,54.6,29.74,SSW,202,2.3,0.0,53,0.00,OVC,,0.00,19.5,WeatherDisplay:10.37,2013-06-09 18:18:00,
2013-06-09 20:23:00,72.5,54.4,29.74,SSW,202,1.2,0.0,53,0.00,OVC,,0.00,17.0,WeatherDisplay:10.37,2013-06-09 18:23:00,
2013-06-09 20:28:00,72.1,54.1,29.74,SSW,202,2.3,2.3,53,0.00,OVC,,0.00,14.7,WeatherDisplay:10.37,2013-06-09 18:28:00,
2013-06-09 20:33:00,71.8,54.2,29.77,SSW,202,2.3,2.3,54,0.00,OVC,,0.00,12.5,WeatherDisplay:10.37,2013-06-09 18:33:00,
2013-06-09 20:38:00,71.4,53.9,29.77,SSW,202,1.2,0.0,54,0.00,OVC,,0.00,10.2,WeatherDisplay:10.37,2013-06-09 18:38:00,
2013-06-09 20:43:00,71.2,54.2,29.77,South,180,1.2,0.0,55,0.00,OVC,,0.00,8.1,WeatherDisplay:10.37,2013-06-09 18:43:00,
2013-06-09 20:48:00,70.9,53.9,29.77,SSW,202,1.2,0.0,55,0.00,OVC,,0.00,5.9,WeatherDisplay:10.37,2013-06-09 18:48:00,
2013-06-09 20:53:00,70.5,54.1,29.77,SSW,202,2.4,0.0,56,0.00,OVC,,0.00,3.8,WeatherDisplay:10.37,2013-06-09 18:53:00,
2013-06-09 20:58:00,70.2,53.7,29.77,SSW,202,0.0,0.0,56,0.00,OVC,,0.00,1.6,WeatherDisplay:10.37,2013-06-09 18:58:00,
2013-06-09 21:03:00,70.0,54.0,29.77,SSW,202,1.2,0.0,57,0.00,CLR,,0.00,0.0,WeatherDisplay:10.37,2013-06-09 19:03:00,
2013-06-09 21:08:00,69.6,54.2,29.77,SSW,202,0.0,0.0,58,0.00,CLR,,0.00,0.0,WeatherDisplay:10.37,2013-06-09 19:08:00,
2013-06-09 21:13:00,69.4,54.5,29.77,SSW,202,0.0,0.0,59,0.00,CLR,,0.00,0.0,WeatherDisplay:10.37,2013-06-09 19:13:00,
2013-06-09 21:18:00,69.1,54.1,29.77,SSW,202,0.0,0.0,59,0.00,CLR,,0.00,0.0,WeatherDisplay:10.37,2013-06-09 19:18:00,
2013-06-09 21:23:00,68.7,54.3,29.77,SSW,202,0.0,0.0,60,0.00,CLR,,0.00,0.0,WeatherDisplay:10.37,2013-06-09 19:23:00,
2013-06-09 21:28:00,68.5,54.6,29.77,SSW,202,0.0,0.0,61,0.00,CLR,,0.00,0.0,WeatherDisplay:10.37,2013-06-09 19:28:00,
2013-06-09 21:33:00,68.2,54.2,29.77,SSW,202,0.0,0.0,61,0.00,CLR,,0.00,0.0,WeatherDisplay:10.37,2013-06-09 19:33:00,
2013-06-09 21:38:00,68.0,54.5,29.77,SSW,202,0.0,0.0,62,0.00,CLR,,0.00,0.0,WeatherDisplay:10.37,2013-06-09 19:38:00,
2013-06-09 21:43:00,67.6,54.6,29.77,SSW,202,0.0,0.0,63,0.00,CLR,,0.00,0.0,WeatherDisplay:10.37,2013-06-09 19:43:00,
2013-06-09 21:48:00,67.3,54.7,29.77,SSE,158,0.0,0.0,64,0.00,CLR,,0.00,0.0,WeatherDisplay:10.37,2013-06-09 19:48:00,
2013-06-09 21:53:00,67.1,54.9,29.77,SSW,202,0.0,0.0,65,0.00,CLR,,0.00,0.0,WeatherDisplay:10.37,2013-06-09 19:53:00,
2013-06-09 21:58:00,66.9,54.8,29.77,SSW,202,0.0,0.0,65,0.00,CLR,,0.00,0.0,WeatherDisplay:10.37,2013-06-09 19:58:00,
2013-06-09 22:03:00,66.6,54.8,29.77,SSW,202,0.0,0.0,66,0.00,CLR,,0.00,0.0,WeatherDisplay:10.37,2013-06-09 20:03:00,
2013-06-09 22:08:00,66.4,55.1,29.77,SSW,202,0.0,0.0,67,0.00,CLR,,0.00,0.0,WeatherDisplay:10.37,2013-06-09 20:08:00,
2013-06-09 22:13:00,66.2,54.9,29.77,SSW,202,0.0,0.0,67,0.00,CLR,,0.00,0.0,WeatherDisplay:10.37,2013-06-09 20:13:00,
2013-06-09 22:18:00,65.8,55.0,29.77,SSW,202,0.0,0.0,68,0.00,CLR,,0.00,0.0,WeatherDisplay:10.37,2013-06-09 20:18:00,
2013-06-09 22:23:00,65.7,54.8,29.77,SSE,158,0.0,0.0,68,0.00,CLR,,0.00,0.0,WeatherDisplay:10.37,2013-06-09 20:23:00,
2013-06-09 22:28:00,65.5,55.0,29.77,ESE,112,0.0,0.0,69,0.00,CLR,,0.00,0.0,WeatherDisplay:10.37,2013-06-09 20:28:00,
2013-06-09 22:33:00,65.1,55.1,29.77,SSE,158,0.0,0.0,70,0.00,CLR,,0.00,0.0,WeatherDisplay:10.37,2013-06-09 20:33:00,
2013-06-09 22:38:00,64.9,54.9,29.77,SSE,158,0.0,0.0,70,0.00,CLR,,0.00,0.0,WeatherDisplay:10.37,2013-06-09 20:38:00,
2013-06-09 22:43:00,64.8,55.1,29.77,WSW,248,0.0,0.0,71,0.00,CLR,,0.00,0.0,WeatherDisplay:10.37,2013-06-09 20:43:00,
2013-06-09 22:48:00,64.4,54.8,29.77,WSW,248,0.0,0.0,71,0.00,CLR,,0.00,0.0,WeatherDisplay:10.37,2013-06-09 20:48:00,
2013-06-09 22:53:00,64.2,55.0,29.77,WSW,248,0.0,0.0,72,0.00,CLR,,0.00,0.0,WeatherDisplay:10.37,2013-06-09 20:53:00,
2013-06-09 22:58:00,64.0,55.2,29.77,WSW,248,0.0,0.0,73,0.00,CLR,,0.00,0.0,WeatherDisplay:10.37,2013-06-09 20:58:00,
2013-06-09 23:03:00,63.9,55.0,29.77,SW,225,0.0,0.0,73,0.00,CLR,,0.00,0.0,WeatherDisplay:10.37,2013-06-09 21:03:00,
2013-06-09 23:08:00,63.7,54.9,29.77,SW,225,0.0,0.0,73,0.00,CLR,,0.00,0.0,WeatherDisplay:10.37,2013-06-09 21:08:00,
2013-06-09 23:13:00,63.5,54.7,29.77,SW,225,0.0,0.0,73,0.00,CLR,,0.00,0.0,WeatherDisplay:10.37,2013-06-09 21:13:00,
2013-06-09 23:18:00,63.3,55.3,29.77,SW,225,0.0,0.0,75,0.00,CLR,,0.00,0.0,WeatherDisplay:10.37,2013-06-09 21:18:00,
2013-06-09 23:23:00,63.1,55.1,29.77,SSE,158,0.0,0.0,75,0.00,CLR,,0.00,0.0,WeatherDisplay:10.37,2013-06-09 21:23:00,
2013-06-09 23:28:00,63.1,55.4,29.77,ESE,112,2.0,0.0,76,0.00,CLR,,0.00,0.0,WeatherDisplay:10.37,2013-06-09 21:28:00,
2013-06-09 23:33:00,63.0,55.3,29.80,ENE,68,0.0,0.0,76,0.00,CLR,,0.00,0.0,WeatherDisplay:10.37,2013-06-09 21:33:00,
2013-06-09 23:38:00,63.0,55.3,29.80,ESE,112,1.2,0.0,76,0.00,CLR,,0.00,0.0,WeatherDisplay:10.37,2013-06-09 21:38:00,
2013-06-09 23:43:00,62.8,55.1,29.80,ESE,112,1.2,0.0,76,0.00,CLR,,0.00,0.0,WeatherDisplay:10.37,2013-06-09 21:43:00,
2013-06-09 23:48:00,62.8,55.1,29.80,ESE,112,0.0,0.0,76,0.00,CLR,,0.00,0.0,WeatherDisplay:10.37,2013-06-09 21:48:00,
2013-06-09 23:53:00,62.6,55.3,29.80,ESE,112,0.0,0.0,77,0.00,CLR,,0.00,0.0,WeatherDisplay:10.37,2013-06-09 21:53:00,
2013-06-09 23:58:00,62.6,55.3,29.80,ESE,112,0.0,0.0,77,0.00,CLR,,0.00,0.0,WeatherDisplay:10.37,2013-06-09 21:58:00,